When you browse on this site, cookies collect data to enhance your experience and personalize the content and advertising you see.
Visit our Privacy Policy to learn more. By continuing to use the site, you agree to this use of cookies and data.
  • En España
  • Lista de países
  • Para 7 días
  • Temperatura del agua
  • El tiempo en el mapa
  • Informadores
  • user-avatar
    Iniciar sesión

    Tiempo cada hora Warsaw

    Hoy, 28 Mayo, Jueves

    Tiempo Temperatura Precipitaciones Viento Presión Humedad
    00:00 +12°C° 0 mm 2 mps 761 mmHg 87%
    01:00 +11°C° 0 mm 1 mps 760 mmHg 89%
    02:00 +11°C° 0 mm 1 mps 760 mmHg 89%
    03:00 +10°C° 0 mm 1 mps 760 mmHg 89%
    04:00 +10°C° 0 mm 1 mps 760 mmHg 89%
    05:00 +12°C° 0 mm 1 mps 759 mmHg 83%
    06:00 +13°C° 0 mm 1 mps 759 mmHg 77%
    07:00 +14°C° 0 mm 2 mps 759 mmHg 72%
    08:00 +16°C° 0 mm 2 mps 759 mmHg 67%
    09:00 +17°C° 0 mm 3 mps 759 mmHg 63%
    10:00 +18°C° 0 mm 3 mps 759 mmHg 59%
    11:00 +18°C° 0.1 mm 4 mps 759 mmHg 58%
    12:00 +19°C° 0.1 mm 4 mps 758 mmHg 58%
    13:00 +19°C° 0.1 mm 5 mps 758 mmHg 57%
    14:00 +19°C° 0 mm 5 mps 758 mmHg 57%
    15:00 +19°C° 0 mm 5 mps 758 mmHg 58%
    16:00 +19°C° 0 mm 5 mps 757 mmHg 58%
    17:00 +18°C° 0 mm 4 mps 757 mmHg 64%
    18:00 +17°C° 0 mm 4 mps 757 mmHg 71%
    19:00 +14°C° 0 mm 3 mps 757 mmHg 77%
    20:00 +14°C° 0 mm 3 mps 758 mmHg 81%
    21:00 +13°C° 0 mm 3 mps 758 mmHg 85%
    22:00 +12°C° 0 mm 4 mps 758 mmHg 89%
    23:00 +11°C° 0 mm 4 mps 758 mmHg 90%

    Mañana, 29 Mayo, Viernes

    Tiempo Temperatura Precipitaciones Viento Presión Humedad
    00:00 +11°C° 0 mm 4 mps 758 mmHg 91%
    01:00 +11°C° 0 mm 4 mps 758 mmHg 92%
    02:00 +9°C° 0 mm 5 mps 758 mmHg 88%
    03:00 +9°C° 0 mm 5 mps 758 mmHg 83%
    04:00 +8°C° 0 mm 5 mps 758 mmHg 79%
    05:00 +9°C° 0 mm 5 mps 758 mmHg 77%
    06:00 +9°C° 0 mm 5 mps 758 mmHg 74%
    07:00 +10°C° 0 mm 6 mps 758 mmHg 71%
    08:00 +11°C° 0 mm 6 mps 758 mmHg 67%
    09:00 +14°C° 0 mm 6 mps 758 mmHg 63%
    10:00 +15°C° 0 mm 6 mps 758 mmHg 58%
    11:00 +16°C° 0.1 mm 6 mps 758 mmHg 56%
    12:00 +16°C° 0.1 mm 6 mps 757 mmHg 55%
    13:00 +16°C° 0.1 mm 6 mps 757 mmHg 53%
    14:00 +16°C° 0.1 mm 6 mps 757 mmHg 53%
    15:00 +16°C° 0.1 mm 6 mps 757 mmHg 54%
    16:00 +16°C° 0.1 mm 6 mps 757 mmHg 54%
    17:00 +15°C° 0 mm 6 mps 757 mmHg 59%
    18:00 +14°C° 0 mm 5 mps 756 mmHg 65%
    19:00 +13°C° 0 mm 5 mps 756 mmHg 70%
    20:00 +12°C° 0 mm 5 mps 756 mmHg 73%
    21:00 +10°C° 0 mm 5 mps 756 mmHg 76%
    22:00 +9°C° 0 mm 5 mps 756 mmHg 79%
    23:00 +9°C° 0 mm 5 mps 756 mmHg 79%

    Pasado mañana, 30 Mayo, Sábado

    Tiempo Temperatura Precipitaciones Viento Presión Humedad
    00:00 +8°C° 0 mm 5 mps 756 mmHg 79%
    01:00 +8°C° 0 mm 4 mps 756 mmHg 78%
    02:00 +8°C° 0.1 mm 5 mps 755 mmHg 78%
    03:00 +8°C° 0.1 mm 5 mps 755 mmHg 78%
    04:00 +8°C° 0.1 mm 5 mps 755 mmHg 79%
    05:00 +8°C° 0.1 mm 5 mps 755 mmHg 78%
    06:00 +9°C° 0.1 mm 5 mps 754 mmHg 77%
    07:00 +9°C° 0.1 mm 6 mps 754 mmHg 76%
    08:00 +9°C° 0.5 mm 6 mps 754 mmHg 81%
    09:00 +8°C° 0.5 mm 6 mps 754 mmHg 85%
    10:00 +8°C° 0.5 mm 6 mps 754 mmHg 90%
    11:00 +8°C° 0.3 mm 5 mps 754 mmHg 89%
    12:00 +9°C° 0.3 mm 5 mps 753 mmHg 89%
    13:00 +10°C° 0.3 mm 4 mps 753 mmHg 88%
    14:00 +11°C° 0.2 mm 4 mps 753 mmHg 89%
    15:00 +11°C° 0.2 mm 4 mps 753 mmHg 89%
    16:00 +12°C° 0.2 mm 4 mps 753 mmHg 89%
    17:00 +12°C° 0 mm 4 mps 753 mmHg 90%
    18:00 +13°C° 0 mm 4 mps 752 mmHg 90%
    19:00 +13°C° 0 mm 4 mps 752 mmHg 90%
    20:00 +13°C° 1.2 mm 5 mps 752 mmHg 92%
    21:00 +13°C° 1.2 mm 5 mps 752 mmHg 93%
    22:00 +13°C° 1.2 mm 6 mps 752 mmHg 95%
    23:00 +13°C° 1.1 mm 6 mps 751 mmHg 93%

    31 Mayo, Domingo

    Tiempo Temperatura Precipitaciones Viento Presión Humedad
    00:00 +13°C° 1.1 mm 6 mps 751 mmHg 92%
    01:00 +13°C° 1.1 mm 6 mps 751 mmHg 90%
    02:00 +11°C° 0.2 mm 6 mps 750 mmHg 89%
    03:00 +11°C° 0.2 mm 6 mps 750 mmHg 87%
    04:00 +11°C° 0.2 mm 6 mps 750 mmHg 86%
    05:00 +13°C° 0 mm 6 mps 750 mmHg 84%
    06:00 +13°C° 0 mm 6 mps 751 mmHg 83%
    07:00 +14°C° 0 mm 7 mps 751 mmHg 81%
    08:00 +15°C° 0 mm 6 mps 751 mmHg 78%
    09:00 +16°C° 0 mm 6 mps 751 mmHg 76%
    10:00 +17°C° 0 mm 6 mps 751 mmHg 73%
    11:00 +19°C° 0 mm 6 mps 751 mmHg 73%
    12:00 +19°C° 0 mm 6 mps 752 mmHg 73%
    13:00 +20°C° 0 mm 6 mps 752 mmHg 72%
    14:00 +20°C° 0.1 mm 5 mps 752 mmHg 75%
    15:00 +19°C° 0.1 mm 5 mps 752 mmHg 77%
    16:00 +19°C° 0.1 mm 5 mps 752 mmHg 79%
    17:00 +19°C° 0.1 mm 4 mps 752 mmHg 79%
    18:00 +18°C° 0.1 mm 4 mps 753 mmHg 80%
    19:00 +18°C° 0.1 mm 4 mps 753 mmHg 80%
    20:00 +17°C° 0 mm 4 mps 753 mmHg 79%
    21:00 +17°C° 0 mm 4 mps 753 mmHg 79%
    22:00 +15°C° 0 mm 4 mps 754 mmHg 78%
    23:00 +14°C° 0 mm 4 mps 754 mmHg 80%

    1 Junio, Lunes

    Tiempo Temperatura Precipitaciones Viento Presión Humedad
    00:00 +14°C° 0 mm 4 mps 754 mmHg 81%
    01:00 +13°C° 0 mm 4 mps 754 mmHg 82%
    02:00 +12°C° 0 mm 4 mps 754 mmHg 83%
    03:00 +12°C° 0 mm 4 mps 754 mmHg 83%
    04:00 +12°C° 0 mm 4 mps 754 mmHg 83%
    05:00 +13°C° 0 mm 5 mps 755 mmHg 78%
    06:00 +14°C° 0 mm 5 mps 755 mmHg 73%
    07:00 +15°C° 0 mm 6 mps 755 mmHg 69%
    08:00 +16°C° 0 mm 6 mps 755 mmHg 66%
    09:00 +19°C° 0 mm 6 mps 755 mmHg 63%
    10:00 +20°C° 0 mm 7 mps 755 mmHg 60%
    11:00 +20°C° 0 mm 7 mps 755 mmHg 60%
    12:00 +20°C° 0 mm 7 mps 755 mmHg 59%
    13:00 +21°C° 0 mm 6 mps 755 mmHg 59%
    14:00 +21°C° 0 mm 6 mps 755 mmHg 59%
    15:00 +21°C° 0 mm 6 mps 755 mmHg 59%
    16:00 +21°C° 0 mm 6 mps 755 mmHg 59%
    17:00 +20°C° 0 mm 5 mps 755 mmHg 63%
    18:00 +19°C° 0 mm 5 mps 755 mmHg 68%
    19:00 +18°C° 0 mm 4 mps 755 mmHg 72%
    20:00 +17°C° 0 mm 4 mps 755 mmHg 74%
    21:00 +15°C° 0 mm 4 mps 755 mmHg 75%
    22:00 +14°C° 0 mm 4 mps 755 mmHg 77%
    23:00 +13°C° 0 mm 4 mps 755 mmHg 77%

    2 Junio, Martes

    Tiempo Temperatura Precipitaciones Viento Presión Humedad
    00:00 +12°C° 0 mm 4 mps 755 mmHg 78%
    01:00 +12°C° 0 mm 4 mps 755 mmHg 79%
    02:00 +11°C° 0 mm 4 mps 755 mmHg 80%
    03:00 +11°C° 0 mm 4 mps 755 mmHg 81%
    04:00 +11°C° 0 mm 4 mps 755 mmHg 82%
    05:00 +12°C° 0 mm 4 mps 755 mmHg 78%
    06:00 +14°C° 0 mm 5 mps 755 mmHg 75%
    07:00 +15°C° 0 mm 5 mps 755 mmHg 71%
    08:00 +16°C° 0 mm 5 mps 755 mmHg 68%
    09:00 +19°C° 0 mm 6 mps 755 mmHg 64%
    10:00 +20°C° 0 mm 6 mps 755 mmHg 60%
    11:00 +21°C° 0.2 mm 6 mps 755 mmHg 59%
    12:00 +21°C° 0.2 mm 6 mps 755 mmHg 58%
    13:00 +22°C° 0.2 mm 6 mps 754 mmHg 58%
    14:00 +22°C° 0.2 mm 6 mps 754 mmHg 58%
    15:00 +22°C° 0.2 mm 5 mps 754 mmHg 58%
    16:00 +21°C° 0.2 mm 5 mps 754 mmHg 58%
    17:00 +20°C° 0 mm 5 mps 754 mmHg 63%
    18:00 +19°C° 0 mm 4 mps 754 mmHg 67%
    19:00 +18°C° 0 mm 4 mps 753 mmHg 71%
    20:00 +17°C° 0 mm 4 mps 754 mmHg 74%
    21:00 +16°C° 0 mm 3 mps 754 mmHg 77%
    22:00 +14°C° 0 mm 3 mps 754 mmHg 80%
    23:00 +13°C° 0 mm 3 mps 754 mmHg 81%
    Mostrar más